Location: Shannon
(40.5500°S, 175.4167°E)
Time: 21:50:54
(UTC+00:00)

H-2A R/B - Pass Details

Date: 17 November 2025
Orbit: 728 x 830 km, 98.3° (Epoch: 06 December)

Event Time Altitude Azimuth Distance (km) Brightness Sun altitude
Exits shadow 14:00:48 12° 48° (NE) 2,181 4.2 -24.4°
Maximum altitude 14:05:05 37° 112° (ESE) 1,219 3.4 -23.9°
Drops below altitude 10° 14:09:53 10° 177° (S) 2,393 5.4 -23.5°
Sets 14:12:25 0° 184° (S) 3,347 6.1 -23.2°
